Time,TemperatureF,DewpointF,PressureIn,WindDirection,WindDirectionDegrees,WindSpeedMPH,WindSpeedGustMPH,Humidity,HourlyPrecipIn,Conditions,Clouds,dailyrainin,SoftwareType,DateUTC
2013-09-14 00:01:00,81.5,77.5,29.71,SE,135,0.0,1.0,88,0.00,,,0.00,meteohub,2013-09-14 04:01:00,
2013-09-14 00:02:00,81.5,77.5,29.71,SE,135,0.0,1.0,88,0.00,,,0.00,meteohub,2013-09-14 04:02:00,
2013-09-14 00:07:00,81.5,77.5,29.70,East,90,0.0,1.0,88,0.00,,,0.00,meteohub,2013-09-14 04:07:00,
2013-09-14 00:12:00,81.5,77.5,29.71,East,90,0.0,1.0,88,0.00,,,0.00,meteohub,2013-09-14 04:12:00,
2013-09-14 00:17:00,81.5,77.5,29.71,SE,135,1.0,1.0,88,0.00,,,0.00,meteohub,2013-09-14 04:17:00,
2013-09-14 00:22:00,81.5,77.5,29.71,SE,135,0.0,1.0,88,0.00,,,0.00,meteohub,2013-09-14 04:22:00,
2013-09-14 00:27:00,81.7,77.7,29.71,East,90,0.0,1.0,88,0.00,,,0.00,meteohub,2013-09-14 04:27:00,
2013-09-14 00:33:00,81.7,77.7,29.71,South,180,1.0,1.0,88,0.00,,,0.00,meteohub,2013-09-14 04:33:00,
2013-09-14 00:38:00,81.7,77.7,29.71,East,90,0.0,1.0,88,0.00,,,0.00,meteohub,2013-09-14 04:38:00,
2013-09-14 00:43:00,81.7,78.1,29.72,SE,135,0.0,1.0,89,0.00,,,0.00,meteohub,2013-09-14 04:43:00,
2013-09-14 00:48:00,81.7,78.1,29.71,ESE,113,0.0,1.0,89,0.00,,,0.00,meteohub,2013-09-14 04:48:00,
2013-09-14 00:53:00,81.7,78.1,29.71,SE,135,0.0,1.0,89,0.00,,,0.00,meteohub,2013-09-14 04:53:00,
2013-09-14 00:58:00,81.7,78.1,29.71,East,90,0.0,1.0,89,0.00,,,0.00,meteohub,2013-09-14 04:58:00,
2013-09-14 01:03:00,81.7,78.1,29.71,SE,135,1.0,1.0,89,0.00,,,0.00,meteohub,2013-09-14 05:03:00,
2013-09-14 01:08:00,81.5,77.9,29.71,SE,135,0.0,1.0,89,0.00,,,0.00,meteohub,2013-09-14 05:08:00,
2013-09-14 01:13:00,81.5,77.9,29.70,SE,135,0.0,1.0,89,0.00,,,0.00,meteohub,2013-09-14 05:13:00,
2013-09-14 01:18:00,81.5,77.9,29.71,East,90,1.0,1.0,89,0.00,,,0.00,meteohub,2013-09-14 05:18:00,
2013-09-14 01:23:00,81.7,78.1,29.70,East,90,1.0,1.0,89,0.00,,,0.00,meteohub,2013-09-14 05:23:00,
2013-09-14 01:28:00,81.5,77.9,29.70,SE,135,0.0,1.0,89,0.00,,,0.00,meteohub,2013-09-14 05:28:00,
2013-09-14 01:33:00,81.5,77.9,29.71,SSE,158,0.0,1.0,89,0.00,,,0.00,meteohub,2013-09-14 05:33:00,
2013-09-14 01:38:00,81.3,77.7,29.70,East,90,1.0,1.0,89,0.00,,,0.00,meteohub,2013-09-14 05:38:00,
2013-09-14 01:43:00,81.3,77.7,29.70,South,180,0.0,1.0,89,0.00,,,0.00,meteohub,2013-09-14 05:43:00,
2013-09-14 01:48:00,81.1,77.5,29.70,East,90,0.0,1.0,89,0.00,,,0.00,meteohub,2013-09-14 05:48:00,
2013-09-14 01:53:00,81.0,77.4,29.70,South,180,0.0,1.0,89,0.00,,,0.00,meteohub,2013-09-14 05:53:00,
2013-09-14 01:58:00,81.0,77.7,29.70,SE,135,0.0,1.0,90,0.00,,,0.00,meteohub,2013-09-14 05:58:00,
2013-09-14 02:03:00,81.0,77.7,29.69,SE,135,0.0,1.0,90,0.00,,,0.00,meteohub,2013-09-14 06:03:00,
2013-09-14 02:08:00,81.0,77.4,29.69,SE,135,0.0,1.0,89,0.00,,,0.00,meteohub,2013-09-14 06:08:00,
2013-09-14 02:13:00,81.0,77.4,29.69,SE,135,0.0,0.0,89,0.00,,,0.00,meteohub,2013-09-14 06:13:00,
2013-09-14 02:18:00,80.6,77.0,29.69,SE,135,0.0,0.0,89,0.00,,,0.00,meteohub,2013-09-14 06:18:00,
2013-09-14 02:23:00,80.6,77.4,29.69,East,90,2.0,0.0,90,0.00,,,0.00,meteohub,2013-09-14 06:23:00,
2013-09-14 02:28:00,80.6,77.4,29.69,SE,135,0.0,2.0,90,0.00,,,0.00,meteohub,2013-09-14 06:28:00,
2013-09-14 02:33:00,80.4,77.5,29.69,SE,135,0.0,2.0,91,0.00,,,0.00,meteohub,2013-09-14 06:33:00,
2013-09-14 02:38:00,80.2,77.4,29.69,SW,225,0.0,2.0,91,0.00,,,0.00,meteohub,2013-09-14 06:38:00,
2013-09-14 02:43:00,80.1,77.2,29.69,South,180,0.0,0.0,91,0.00,,,0.00,meteohub,2013-09-14 06:43:00,
2013-09-14 02:48:00,79.9,77.0,29.69,South,180,0.0,0.0,91,0.00,,,0.00,meteohub,2013-09-14 06:48:00,
2013-09-14 02:53:00,79.5,76.6,29.69,South,180,0.0,0.0,91,0.00,,,0.00,meteohub,2013-09-14 06:53:00,
2013-09-14 02:58:00,79.3,76.5,29.69,South,180,0.0,0.0,91,0.00,,,0.00,meteohub,2013-09-14 06:58:00,
2013-09-14 03:03:00,79.3,76.8,29.69,East,90,0.0,0.0,92,0.00,,,0.00,meteohub,2013-09-14 07:03:00,
2013-09-14 03:08:00,79.2,76.6,29.69,East,90,0.0,0.0,92,0.00,,,0.00,meteohub,2013-09-14 07:08:00,
2013-09-14 03:13:00,78.8,76.3,29.69,East,90,0.0,0.0,92,0.00,,,0.00,meteohub,2013-09-14 07:13:00,
2013-09-14 03:18:00,78.4,76.3,29.70,East,90,0.0,0.0,93,0.00,,,0.00,meteohub,2013-09-14 07:18:00,
2013-09-14 03:23:00,78.1,75.9,29.70,East,90,0.0,0.0,93,0.00,,,0.00,meteohub,2013-09-14 07:23:00,
2013-09-14 03:29:00,77.7,75.6,29.69,East,90,0.0,0.0,93,0.00,,,0.00,meteohub,2013-09-14 07:29:00,
2013-09-14 03:34:00,77.4,75.6,29.69,East,90,0.0,0.0,94,0.00,,,0.00,meteohub,2013-09-14 07:34:00,
2013-09-14 03:39:00,77.2,75.4,29.70,NE,45,0.0,0.0,94,0.00,,,0.00,meteohub,2013-09-14 07:39:00,
2013-09-14 03:44:00,76.5,74.8,29.69,NE,45,1.0,0.0,95,0.00,,,0.00,meteohub,2013-09-14 07:44:00,
2013-09-14 03:49:00,75.9,74.7,29.69,NE,45,0.0,1.0,96,0.00,,,0.00,meteohub,2013-09-14 07:49:00,
2013-09-14 03:54:00,75.6,74.3,29.69,NE,45,0.0,1.0,96,0.00,,,0.00,meteohub,2013-09-14 07:54:00,
2013-09-14 03:59:00,75.0,74.1,29.69,NE,45,0.0,1.0,97,0.00,,,0.00,meteohub,2013-09-14 07:59:00,
2013-09-14 04:04:00,74.8,73.9,29.69,NE,45,0.0,1.0,97,0.00,,,0.00,meteohub,2013-09-14 08:04:00,
2013-09-14 04:09:00,74.3,73.8,29.69,NE,45,0.0,1.0,98,0.00,,,0.00,meteohub,2013-09-14 08:09:00,
2013-09-14 04:14:00,74.5,73.9,29.69,NE,45,1.0,1.0,98,0.00,,,0.00,meteohub,2013-09-14 08:14:00,
2013-09-14 04:19:00,73.9,73.6,29.69,NE,45,0.0,1.0,99,0.00,,,0.00,meteohub,2013-09-14 08:19:00,
2013-09-14 04:24:00,73.8,73.4,29.69,NE,45,0.0,1.0,99,0.00,,,0.00,meteohub,2013-09-14 08:24:00,
2013-09-14 04:29:00,73.6,73.2,29.69,NE,45,1.0,1.0,99,0.00,,,0.00,meteohub,2013-09-14 08:29:00,
2013-09-14 04:34:00,73.4,73.0,29.69,NE,45,1.0,1.0,99,0.00,,,0.00,meteohub,2013-09-14 08:34:00,
2013-09-14 04:39:00,73.2,72.3,29.68,NE,45,1.0,1.0,97,0.00,,,0.00,meteohub,2013-09-14 08:39:00,
2013-09-14 04:44:00,73.2,72.3,29.68,NE,45,0.0,1.0,97,0.00,,,0.00,meteohub,2013-09-14 08:44:00,
2013-09-14 04:49:00,73.2,72.3,29.69,NE,45,1.0,1.0,97,0.00,,,0.00,meteohub,2013-09-14 08:49:00,
2013-09-14 04:54:00,72.9,72.0,29.69,NE,45,0.0,1.0,97,0.00,,,0.00,meteohub,2013-09-14 08:54:00,
2013-09-14 04:59:00,72.9,72.0,29.69,NE,45,1.0,1.0,97,0.00,,,0.00,meteohub,2013-09-14 08:59:00,
2013-09-14 05:04:00,72.9,72.0,29.69,NE,45,0.0,1.0,97,0.00,,,0.00,meteohub,2013-09-14 09:04:00,
2013-09-14 05:09:00,72.9,72.0,29.70,NE,45,0.0,1.0,97,0.00,,,0.00,meteohub,2013-09-14 09:09:00,
2013-09-14 05:14:00,72.9,72.0,29.69,NE,45,1.0,1.0,97,0.00,,,0.00,meteohub,2013-09-14 09:14:00,
2013-09-14 05:19:00,72.9,72.0,29.69,NE,45,0.0,1.0,97,0.00,,,0.00,meteohub,2013-09-14 09:19:00,
2013-09-14 05:24:00,72.9,72.0,29.70,NE,45,1.0,1.0,97,0.00,,,0.00,meteohub,2013-09-14 09:24:00,
2013-09-14 05:29:00,72.9,72.0,29.70,NE,45,0.0,1.0,97,0.00,,,0.00,meteohub,2013-09-14 09:29:00,
2013-09-14 05:34:00,72.7,71.8,29.69,NE,45,0.0,1.0,97,0.00,,,0.00,meteohub,2013-09-14 09:34:00,
2013-09-14 05:39:00,72.7,71.8,29.69,NE,45,0.0,1.0,97,0.00,,,0.00,meteohub,2013-09-14 09:39:00,
2013-09-14 05:44:00,72.7,71.8,29.69,East,90,0.0,1.0,97,0.00,,,0.00,meteohub,2013-09-14 09:44:00,
2013-09-14 05:49:00,72.7,71.8,29.69,NE,45,1.0,1.0,97,0.00,,,0.00,meteohub,2013-09-14 09:49:00,
2013-09-14 05:54:00,72.7,71.8,29.69,NE,45,0.0,1.0,97,0.00,,,0.00,meteohub,2013-09-14 09:54:00,
2013-09-14 05:59:00,72.7,71.8,29.69,East,90,0.0,1.0,97,0.00,,,0.00,meteohub,2013-09-14 09:59:00,
2013-09-14 06:04:00,72.7,71.8,29.69,East,90,0.0,1.0,97,0.00,,,0.00,meteohub,2013-09-14 10:04:00,
2013-09-14 06:09:00,72.7,71.8,29.69,NE,45,1.0,1.0,97,0.00,,,0.00,meteohub,2013-09-14 10:09:00,
2013-09-14 06:14:00,72.7,71.8,29.70,NE,45,1.0,1.0,97,0.00,,,0.00,meteohub,2013-09-14 10:14:00,
2013-09-14 06:19:00,72.5,71.6,29.70,NE,45,0.0,1.0,97,0.00,,,0.00,meteohub,2013-09-14 10:19:00,
2013-09-14 06:24:00,72.5,71.6,29.70,NE,45,1.0,1.0,97,0.00,,,0.00,meteohub,2013-09-14 10:24:00,
2013-09-14 06:29:00,72.3,71.4,29.70,NE,45,1.0,1.0,97,0.00,,,0.00,meteohub,2013-09-14 10:29:00,
2013-09-14 06:34:00,72.0,71.1,29.70,NE,45,1.0,1.0,97,0.00,,,0.00,meteohub,2013-09-14 10:34:00,
2013-09-14 06:39:00,72.0,71.1,29.70,East,90,0.0,1.0,97,0.00,,,0.00,meteohub,2013-09-14 10:39:00,
2013-09-14 06:44:00,71.8,70.9,29.70,East,90,0.0,1.0,97,0.00,,,0.00,meteohub,2013-09-14 10:44:00,
2013-09-14 06:49:00,71.8,70.9,29.70,NE,45,0.0,1.0,97,0.00,,,0.00,meteohub,2013-09-14 10:49:00,
2013-09-14 06:54:00,71.8,70.9,29.70,NE,45,1.0,1.0,97,0.00,,,0.00,meteohub,2013-09-14 10:54:00,
2013-09-14 06:59:00,71.8,70.9,29.71,NE,45,1.0,1.0,97,0.00,,,0.00,meteohub,2013-09-14 10:59:00,
2013-09-14 07:04:00,71.8,70.9,29.70,NE,45,1.0,1.0,97,0.00,,,0.00,meteohub,2013-09-14 11:04:00,
2013-09-14 07:09:00,71.6,70.7,29.71,NE,45,1.0,1.0,97,0.00,,,0.00,meteohub,2013-09-14 11:09:00,
2013-09-14 07:14:00,71.8,70.9,29.70,NE,45,1.0,1.0,97,0.00,,,0.00,meteohub,2013-09-14 11:14:00,
2013-09-14 07:19:00,71.8,70.9,29.71,NE,45,1.0,1.0,97,0.00,,,0.00,meteohub,2013-09-14 11:19:00,
2013-09-14 07:24:00,71.8,70.9,29.71,NE,45,1.0,1.0,97,0.00,,,0.00,meteohub,2013-09-14 11:24:00,
2013-09-14 07:29:00,71.8,70.9,29.71,North,0,1.0,1.0,97,0.00,,,0.00,meteohub,2013-09-14 11:29:00,
2013-09-14 07:34:00,71.8,70.9,29.71,NE,45,0.0,1.0,97,0.00,,,0.00,meteohub,2013-09-14 11:34:00,
2013-09-14 07:39:00,71.8,70.9,29.71,NE,45,1.0,1.0,97,0.00,,,0.00,meteohub,2013-09-14 11:39:00,
2013-09-14 07:44:00,71.8,70.9,29.71,NE,45,1.0,1.0,97,0.00,,,0.00,meteohub,2013-09-14 11:44:00,
2013-09-14 07:49:00,71.8,70.9,29.71,NE,45,1.0,1.0,97,0.00,,,0.00,meteohub,2013-09-14 11:49:00,
2013-09-14 07:54:00,72.0,71.1,29.72,NE,45,1.0,1.0,97,0.00,,,0.00,meteohub,2013-09-14 11:54:00,
2013-09-14 07:59:00,72.1,71.2,29.72,NE,45,1.0,1.0,97,0.00,,,0.00,meteohub,2013-09-14 11:59:00,
2013-09-14 08:04:00,72.1,71.2,29.72,NE,45,1.0,1.0,97,0.00,,,0.00,meteohub,2013-09-14 12:04:00,
2013-09-14 08:10:00,72.1,71.2,29.72,NE,45,1.0,1.0,97,0.00,,,0.00,meteohub,2013-09-14 12:10:00,
2013-09-14 08:15:00,72.3,71.4,29.73,NE,45,1.0,1.0,97,0.00,,,0.00,meteohub,2013-09-14 12:15:00,
2013-09-14 08:20:00,72.7,71.8,29.73,NE,45,1.0,1.0,97,0.00,,,0.00,meteohub,2013-09-14 12:20:00,
2013-09-14 08:25:00,72.9,72.0,29.73,NE,45,1.0,1.0,97,0.00,,,0.00,meteohub,2013-09-14 12:25:00,
2013-09-14 08:30:00,73.0,72.1,29.73,NE,45,1.0,1.0,97,0.00,,,0.00,meteohub,2013-09-14 12:30:00,
2013-09-14 08:35:00,73.2,72.3,29.73,NE,45,1.0,1.0,97,0.00,,,0.00,meteohub,2013-09-14 12:35:00,
2013-09-14 08:40:00,73.2,72.3,29.73,NE,45,1.0,1.0,97,0.00,,,0.00,meteohub,2013-09-14 12:40:00,
2013-09-14 08:45:00,73.6,73.2,29.73,NE,45,3.0,3.0,99,0.00,,,0.00,meteohub,2013-09-14 12:45:00,
2013-09-14 08:50:00,73.9,73.6,29.73,NE,45,1.0,1.0,99,0.00,,,0.00,meteohub,2013-09-14 12:50:00,
2013-09-14 08:55:00,74.1,73.8,29.74,NE,45,1.0,3.0,99,0.00,,,0.00,meteohub,2013-09-14 12:55:00,
2013-09-14 09:00:00,74.1,73.8,29.73,NE,45,1.0,3.0,99,0.00,,,0.00,meteohub,2013-09-14 13:00:00,
2013-09-14 09:05:00,74.7,74.3,29.74,NE,45,1.0,1.0,99,0.00,,,0.00,meteohub,2013-09-14 13:05:00,
2013-09-14 09:10:00,74.8,74.5,29.74,NE,45,1.0,1.0,99,0.00,,,0.00,meteohub,2013-09-14 13:10:00,
2013-09-14 09:15:00,74.8,74.5,29.74,NE,45,1.0,1.0,99,0.00,,,0.00,meteohub,2013-09-14 13:15:00,
2013-09-14 09:20:00,75.7,75.4,29.75,NE,45,1.0,1.0,99,0.00,,,0.00,meteohub,2013-09-14 13:20:00,
2013-09-14 09:25:00,76.6,76.3,29.75,North,0,1.0,2.0,99,0.00,,,0.00,meteohub,2013-09-14 13:25:00,
2013-09-14 09:30:00,77.5,77.2,29.75,NE,45,1.0,2.0,99,0.00,,,0.00,meteohub,2013-09-14 13:30:00,
2013-09-14 09:35:00,78.4,78.1,29.74,North,0,1.0,2.0,99,0.00,,,0.00,meteohub,2013-09-14 13:35:00,
2013-09-14 09:40:00,79.3,78.8,29.75,NE,45,1.0,2.0,98,0.00,,,0.00,meteohub,2013-09-14 13:40:00,
2013-09-14 09:45:00,80.2,79.7,29.75,North,0,1.0,2.0,98,0.00,,,0.00,meteohub,2013-09-14 13:45:00,
2013-09-14 09:50:00,80.8,79.2,29.75,NE,45,1.0,2.0,95,0.00,,,0.00,meteohub,2013-09-14 13:50:00,
2013-09-14 09:55:00,81.7,78.8,29.75,NE,45,1.0,2.0,91,0.00,,,0.00,meteohub,2013-09-14 13:55:00,
2013-09-14 10:00:00,82.2,79.0,29.75,North,0,4.0,6.0,90,0.00,,,0.00,meteohub,2013-09-14 14:00:00,
2013-09-14 10:05:00,83.5,80.2,29.75,NE,45,4.0,6.0,90,0.00,,,0.00,meteohub,2013-09-14 14:05:00,
2013-09-14 10:10:00,84.4,80.4,29.75,East,90,1.0,6.0,88,0.00,,,0.00,meteohub,2013-09-14 14:10:00,
2013-09-14 10:15:00,85.8,80.8,29.75,NE,45,1.0,4.0,85,0.00,,,0.00,meteohub,2013-09-14 14:15:00,
2013-09-14 10:20:00,86.0,79.5,29.75,ENE,68,1.0,4.0,81,0.00,,,0.00,meteohub,2013-09-14 14:20:00,
2013-09-14 10:25:00,86.2,80.1,29.75,NE,45,1.0,2.0,82,0.00,,,0.00,meteohub,2013-09-14 14:25:00,
2013-09-14 10:30:00,86.5,80.1,29.75,NE,45,1.0,4.0,81,0.00,,,0.00,meteohub,2013-09-14 14:30:00,
2013-09-14 10:35:00,87.3,80.2,29.75,NE,45,4.0,4.0,80,0.00,,,0.00,meteohub,2013-09-14 14:35:00,
2013-09-14 10:40:00,87.6,79.9,29.75,East,90,1.0,5.0,78,0.00,,,0.00,meteohub,2013-09-14 14:40:00,
2013-09-14 10:45:00,87.3,80.2,29.75,East,90,1.0,7.0,80,0.00,,,0.00,meteohub,2013-09-14 14:45:00,
2013-09-14 10:50:00,87.3,80.2,29.75,SE,135,2.0,7.0,80,0.00,,,0.00,meteohub,2013-09-14 14:50:00,
2013-09-14 10:55:00,87.8,79.7,29.75,East,90,3.0,7.0,77,0.00,,,0.00,meteohub,2013-09-14 14:55:00,
2013-09-14 11:00:00,88.3,79.0,29.75,East,90,4.0,4.0,74,0.00,,,0.00,meteohub,2013-09-14 15:00:00,
2013-09-14 11:05:00,88.7,79.0,29.75,NE,45,7.0,10.0,73,0.00,,,0.00,meteohub,2013-09-14 15:05:00,
2013-09-14 11:10:00,89.2,79.5,29.75,East,90,9.0,10.0,73,0.00,,,0.00,meteohub,2013-09-14 15:10:00,
2013-09-14 11:15:00,88.9,79.5,29.75,NE,45,3.0,10.0,74,0.00,,,0.00,meteohub,2013-09-14 15:15:00,
2013-09-14 11:20:00,88.5,78.3,29.75,SE,135,8.0,9.0,72,0.00,,,0.00,meteohub,2013-09-14 15:20:00,
2013-09-14 11:25:00,88.7,79.3,29.76,East,90,9.0,10.0,74,0.00,,,0.00,meteohub,2013-09-14 15:25:00,
2013-09-14 11:30:00,88.5,78.3,29.76,East,90,8.0,11.0,72,0.00,,,0.00,meteohub,2013-09-14 15:30:00,
2013-09-14 11:35:00,88.3,78.6,29.75,ESE,113,5.0,11.0,73,0.00,,,0.00,meteohub,2013-09-14 15:35:00,
2013-09-14 11:40:00,89.2,78.6,29.75,East,90,12.0,12.0,71,0.00,,,0.00,meteohub,2013-09-14 15:40:00,
2013-09-14 11:45:00,89.1,78.8,29.75,East,90,1.0,12.0,72,0.00,,,0.00,meteohub,2013-09-14 15:45:00,
2013-09-14 11:50:00,90.7,78.6,29.75,East,90,6.0,12.0,68,0.00,,,0.00,meteohub,2013-09-14 15:50:00,
2013-09-14 11:55:00,90.9,77.9,29.76,SE,135,8.0,12.0,66,0.00,,,0.00,meteohub,2013-09-14 15:55:00,
2013-09-14 12:00:00,91.2,79.7,29.75,East,90,2.0,9.0,69,0.00,,,0.00,meteohub,2013-09-14 16:00:00,
2013-09-14 12:05:00,91.4,78.4,29.75,East,90,10.0,10.0,66,0.00,,,0.00,meteohub,2013-09-14 16:05:00,
2013-09-14 12:10:00,90.9,78.8,29.75,SE,135,6.0,10.0,68,0.00,,,0.00,meteohub,2013-09-14 16:10:00,
2013-09-14 12:15:00,91.6,78.1,29.75,NW,315,2.0,10.0,65,0.00,,,0.00,meteohub,2013-09-14 16:15:00,
2013-09-14 12:20:00,91.8,78.3,29.75,East,90,10.0,10.0,65,0.00,,,0.00,meteohub,2013-09-14 16:20:00,
2013-09-14 12:25:00,91.8,77.4,29.75,East,90,8.0,11.0,63,0.00,,,0.00,meteohub,2013-09-14 16:25:00,
2013-09-14 12:30:00,91.4,77.5,29.75,SE,135,11.0,11.0,64,0.00,,,0.00,meteohub,2013-09-14 16:30:00,
2013-09-14 12:35:00,91.0,76.6,29.75,SE,135,6.0,11.0,63,0.00,,,0.00,meteohub,2013-09-14 16:35:00,
2013-09-14 12:40:00,91.2,77.7,29.75,East,90,9.0,11.0,65,0.00,,,0.00,meteohub,2013-09-14 16:40:00,
2013-09-14 12:45:00,90.3,77.4,29.74,SE,135,9.0,11.0,66,0.00,,,0.00,meteohub,2013-09-14 16:45:00,
2013-09-14 12:50:00,91.0,78.1,29.75,East,90,11.0,11.0,66,0.00,,,0.00,meteohub,2013-09-14 16:50:00,
2013-09-14 12:55:00,90.9,77.9,29.75,East,90,2.0,11.0,66,0.00,,,0.00,meteohub,2013-09-14 16:55:00,
2013-09-14 13:00:00,91.0,77.2,29.75,East,90,10.0,11.0,64,0.00,,,0.00,meteohub,2013-09-14 17:00:00,
2013-09-14 13:05:00,91.2,77.4,29.75,East,90,11.0,11.0,64,0.00,,,0.00,meteohub,2013-09-14 17:05:00,
2013-09-14 13:10:00,91.2,77.7,29.75,SE,135,9.0,11.0,65,0.00,,,0.00,meteohub,2013-09-14 17:10:00,
2013-09-14 13:15:00,91.0,77.5,29.74,SE,135,6.0,12.0,65,0.00,,,0.00,meteohub,2013-09-14 17:15:00,
2013-09-14 13:20:00,91.2,78.3,29.74,SE,135,7.0,12.0,66,0.00,,,0.00,meteohub,2013-09-14 17:20:00,
2013-09-14 13:25:00,91.0,78.1,29.75,East,90,8.0,12.0,66,0.00,,,0.00,meteohub,2013-09-14 17:25:00,
2013-09-14 13:30:00,91.0,78.6,29.75,South,180,11.0,11.0,67,0.00,,,0.00,meteohub,2013-09-14 17:30:00,
2013-09-14 13:35:00,91.2,78.3,29.75,South,180,10.0,11.0,66,0.00,,,0.00,meteohub,2013-09-14 17:35:00,
2013-09-14 13:40:00,91.8,78.3,29.74,East,90,4.0,11.0,65,0.00,,,0.00,meteohub,2013-09-14 17:40:00,
2013-09-14 13:45:00,91.8,78.3,29.74,East,90,13.0,13.0,65,0.00,,,0.00,meteohub,2013-09-14 17:45:00,
2013-09-14 13:50:00,91.4,77.9,29.75,East,90,12.0,13.0,65,0.00,,,0.00,meteohub,2013-09-14 17:50:00,
2013-09-14 13:55:00,91.8,77.4,29.74,SE,135,2.0,13.0,63,0.00,,,0.00,meteohub,2013-09-14 17:55:00,
2013-09-14 14:00:00,91.9,78.1,29.74,NE,45,11.0,13.0,64,0.00,,,0.00,meteohub,2013-09-14 18:00:00,
2013-09-14 14:05:00,92.1,77.7,29.74,East,90,12.0,12.0,63,0.00,,,0.00,meteohub,2013-09-14 18:05:00,
2013-09-14 14:10:00,91.6,78.1,29.74,East,90,7.0,15.0,65,0.00,,,0.00,meteohub,2013-09-14 18:10:00,
2013-09-14 14:16:00,92.5,78.4,29.74,East,90,10.0,15.0,64,0.00,,,0.00,meteohub,2013-09-14 18:16:00,
2013-09-14 14:21:00,92.5,79.0,29.74,East,90,14.0,15.0,65,0.00,,,0.00,meteohub,2013-09-14 18:21:00,
2013-09-14 14:26:00,92.5,78.1,29.73,East,90,2.0,14.0,63,0.00,,,0.00,meteohub,2013-09-14 18:26:00,
2013-09-14 14:31:00,91.9,78.1,29.74,North,0,9.0,14.0,64,0.00,,,0.00,meteohub,2013-09-14 18:31:00,
2013-09-14 14:36:00,91.9,78.1,29.73,East,90,9.0,14.0,64,0.00,,,0.00,meteohub,2013-09-14 18:36:00,
2013-09-14 14:41:00,91.0,77.5,29.73,East,90,11.0,13.0,65,0.00,,,0.00,meteohub,2013-09-14 18:41:00,
2013-09-14 14:46:00,91.2,78.8,29.73,East,90,15.0,15.0,67,0.00,,,0.00,meteohub,2013-09-14 18:46:00,
2013-09-14 14:51:00,91.4,78.4,29.73,WNW,293,10.0,15.0,66,0.00,,,0.00,meteohub,2013-09-14 18:51:00,
2013-09-14 14:56:00,91.6,77.7,29.73,NE,45,9.0,15.0,64,0.00,,,0.00,meteohub,2013-09-14 18:56:00,
2013-09-14 15:01:00,91.4,77.5,29.73,East,90,11.0,15.0,64,0.00,,,0.00,meteohub,2013-09-14 19:01:00,
2013-09-14 15:06:00,91.6,77.7,29.73,NE,45,10.0,12.0,64,0.00,,,0.00,meteohub,2013-09-14 19:06:00,
2013-09-14 15:11:00,91.6,77.7,29.73,East,90,10.0,12.0,64,0.00,,,0.00,meteohub,2013-09-14 19:11:00,
2013-09-14 15:16:00,91.4,77.5,29.72,East,90,10.0,13.0,64,0.00,,,0.00,meteohub,2013-09-14 19:16:00,
2013-09-14 15:21:00,92.3,78.3,29.72,NE,45,11.0,14.0,64,0.00,,,0.00,meteohub,2013-09-14 19:21:00,
2013-09-14 15:26:00,92.1,78.3,29.72,SE,135,1.0,14.0,64,0.00,,,0.00,meteohub,2013-09-14 19:26:00,
2013-09-14 15:31:00,92.3,78.3,29.72,East,90,12.0,14.0,64,0.00,,,0.00,meteohub,2013-09-14 19:31:00,
2013-09-14 15:36:00,91.8,77.9,29.73,East,90,8.0,14.0,64,0.00,,,0.00,meteohub,2013-09-14 19:36:00,
2013-09-14 15:41:00,92.1,78.3,29.72,SE,135,10.0,13.0,64,0.00,,,0.00,meteohub,2013-09-14 19:41:00,
2013-09-14 15:46:00,91.4,77.5,29.72,North,0,9.0,15.0,64,0.00,,,0.00,meteohub,2013-09-14 19:46:00,
2013-09-14 15:51:00,91.4,77.0,29.72,SE,135,12.0,15.0,63,0.00,,,0.00,meteohub,2013-09-14 19:51:00,
2013-09-14 15:56:00,91.4,77.5,29.71,SE,135,11.0,15.0,64,0.00,,,0.00,meteohub,2013-09-14 19:56:00,
2013-09-14 16:01:00,91.0,76.6,29.72,NE,45,11.0,15.0,63,0.00,,,0.00,meteohub,2013-09-14 20:01:00,
2013-09-14 16:06:00,91.2,76.8,29.72,East,90,11.0,13.0,63,0.00,,,0.00,meteohub,2013-09-14 20:06:00,
2013-09-14 16:11:00,90.3,77.0,29.72,East,90,11.0,15.0,65,0.00,,,0.00,meteohub,2013-09-14 20:11:00,
2013-09-14 16:16:00,90.5,78.4,29.71,ESE,113,2.0,15.0,68,0.00,,,0.00,meteohub,2013-09-14 20:16:00,
2013-09-14 16:21:00,90.3,75.9,29.71,NE,45,11.0,14.0,63,0.00,,,0.00,meteohub,2013-09-14 20:21:00,
2013-09-14 16:26:00,90.1,77.2,29.70,North,0,5.0,12.0,66,0.00,,,0.00,meteohub,2013-09-14 20:26:00,
2013-09-14 16:31:00,90.5,76.1,29.71,North,0,11.0,12.0,63,0.00,,,0.00,meteohub,2013-09-14 20:31:00,
2013-09-14 16:36:00,89.8,75.6,29.70,SE,135,13.0,13.0,63,0.00,,,0.00,meteohub,2013-09-14 20:36:00,
2013-09-14 16:41:00,90.0,76.1,29.71,ENE,68,10.0,14.0,64,0.00,,,0.00,meteohub,2013-09-14 20:41:00,
2013-09-14 16:46:00,90.1,76.3,29.70,South,180,6.0,14.0,64,0.00,,,0.00,meteohub,2013-09-14 20:46:00,
2013-09-14 16:51:00,90.3,76.5,29.70,NE,45,8.0,14.0,64,0.00,,,0.00,meteohub,2013-09-14 20:51:00,
2013-09-14 16:56:00,89.8,76.8,29.70,East,90,13.0,13.0,66,0.00,,,0.00,meteohub,2013-09-14 20:56:00,
2013-09-14 17:01:00,89.6,77.5,29.70,East,90,7.0,13.0,68,0.00,,,0.00,meteohub,2013-09-14 21:01:00,
2013-09-14 17:06:00,89.8,78.3,29.70,East,90,4.0,13.0,69,0.00,,,0.00,meteohub,2013-09-14 21:06:00,
2013-09-14 17:11:00,89.6,78.4,29.69,NE,45,8.0,13.0,70,0.00,,,0.00,meteohub,2013-09-14 21:11:00,
2013-09-14 17:16:00,88.9,79.2,29.70,East,90,10.0,12.0,73,0.00,,,0.00,meteohub,2013-09-14 21:16:00,
2013-09-14 17:21:00,88.9,79.5,29.70,SE,135,9.0,12.0,74,0.00,,,0.00,meteohub,2013-09-14 21:21:00,
2013-09-14 17:26:00,88.2,77.9,29.70,East,90,12.0,12.0,72,0.00,,,0.00,meteohub,2013-09-14 21:26:00,
2013-09-14 17:31:00,88.2,79.2,29.69,East,90,8.0,12.0,75,0.00,,,0.00,meteohub,2013-09-14 21:31:00,
2013-09-14 17:36:00,88.3,78.6,29.69,SE,135,11.0,12.0,73,0.00,,,0.00,meteohub,2013-09-14 21:36:00,
2013-09-14 17:41:00,88.0,77.9,29.69,SE,135,10.0,13.0,72,0.00,,,0.00,meteohub,2013-09-14 21:41:00,
2013-09-14 17:46:00,88.0,77.0,29.70,SE,135,11.0,15.0,70,0.00,,,0.00,meteohub,2013-09-14 21:46:00,
2013-09-14 17:51:00,88.5,77.9,29.70,SE,135,8.0,15.0,71,0.00,,,0.00,meteohub,2013-09-14 21:51:00,
2013-09-14 17:56:00,88.3,77.4,29.70,East,90,8.0,11.0,70,0.00,,,0.00,meteohub,2013-09-14 21:56:00,
2013-09-14 18:01:00,87.8,78.4,29.70,South,180,9.0,15.0,74,0.00,,,0.00,meteohub,2013-09-14 22:01:00,
2013-09-14 18:06:00,87.8,77.7,29.70,SE,135,8.0,15.0,72,0.00,,,0.00,meteohub,2013-09-14 22:06:00,
2013-09-14 18:11:00,88.0,77.4,29.70,SE,135,4.0,12.0,71,0.00,,,0.00,meteohub,2013-09-14 22:11:00,
2013-09-14 18:16:00,87.8,77.2,29.70,East,90,8.0,12.0,71,0.00,,,0.00,meteohub,2013-09-14 22:16:00,
2013-09-14 18:21:00,87.4,76.8,29.70,SE,135,8.0,11.0,71,0.00,,,0.00,meteohub,2013-09-14 22:21:00,
2013-09-14 18:26:00,87.4,78.1,29.70,East,90,12.0,12.0,74,0.00,,,0.00,meteohub,2013-09-14 22:26:00,
2013-09-14 18:31:00,87.1,77.7,29.70,East,90,11.0,12.0,74,0.00,,,0.00,meteohub,2013-09-14 22:31:00,
2013-09-14 18:36:00,86.5,77.7,29.70,SE,135,13.0,13.0,75,0.00,,,0.00,meteohub,2013-09-14 22:36:00,
2013-09-14 18:41:00,86.7,77.0,29.69,East,90,15.0,15.0,73,0.00,,,0.00,meteohub,2013-09-14 22:41:00,
2013-09-14 18:46:00,86.7,77.4,29.69,SE,135,8.0,15.0,74,0.00,,,0.00,meteohub,2013-09-14 22:46:00,
2013-09-14 18:49:00,86.7,77.4,29.69,SE,135,11.0,15.0,74,0.00,,,0.00,meteohub,2013-09-14 22:49:00,
2013-09-14 18:54:00,86.7,77.9,29.70,East,90,9.0,15.0,75,0.00,,,0.00,meteohub,2013-09-14 22:54:00,
2013-09-14 18:59:00,86.5,78.4,29.70,SE,135,9.0,15.0,77,0.00,,,0.00,meteohub,2013-09-14 22:59:00,
2013-09-14 19:04:00,86.4,78.3,29.70,SE,135,8.0,13.0,77,0.00,,,0.00,meteohub,2013-09-14 23:04:00,
2013-09-14 19:09:00,86.7,78.6,29.70,SE,135,11.0,13.0,77,0.00,,,0.00,meteohub,2013-09-14 23:09:00,
2013-09-14 19:14:00,86.2,79.0,29.70,SE,135,8.0,12.0,79,0.00,,,0.00,meteohub,2013-09-14 23:14:00,
2013-09-14 19:19:00,85.6,78.8,29.70,SE,135,7.0,12.0,80,0.00,,,0.00,meteohub,2013-09-14 23:19:00,
2013-09-14 19:24:00,86.0,79.2,29.70,East,90,11.0,13.0,80,0.00,,,0.00,meteohub,2013-09-14 23:24:00,
2013-09-14 19:29:00,86.0,78.3,29.71,East,90,11.0,13.0,78,0.00,,,0.00,meteohub,2013-09-14 23:29:00,
2013-09-14 19:34:00,85.5,78.3,29.71,SE,135,8.0,17.0,79,0.00,,,0.00,meteohub,2013-09-14 23:34:00,
2013-09-14 19:39:00,85.3,78.4,29.71,SE,135,8.0,17.0,80,0.00,,,0.00,meteohub,2013-09-14 23:39:00,
2013-09-14 19:44:00,85.1,77.5,29.71,East,90,10.0,17.0,78,0.00,,,0.00,meteohub,2013-09-14 23:44:00,
2013-09-14 19:49:00,85.1,76.6,29.71,East,90,8.0,9.0,76,0.00,,,0.00,meteohub,2013-09-14 23:49:00,
2013-09-14 19:54:00,85.3,76.8,29.71,SE,135,1.0,10.0,76,0.00,,,0.00,meteohub,2013-09-14 23:54:00,
2013-09-14 19:59:00,85.3,76.8,29.72,South,180,7.0,10.0,76,0.00,,,0.00,meteohub,2013-09-14 23:59:00,
2013-09-14 20:04:00,85.3,77.2,29.71,East,90,8.0,10.0,77,0.00,,,0.00,meteohub,2013-09-15 00:04:00,
2013-09-14 20:09:00,84.9,77.4,29.72,East,90,9.0,11.0,78,0.00,,,0.00,meteohub,2013-09-15 00:09:00,
2013-09-14 20:14:00,84.6,76.5,29.72,NE,45,6.0,11.0,77,0.00,,,0.00,meteohub,2013-09-15 00:14:00,
2013-09-14 20:19:00,84.4,75.6,29.71,East,90,5.0,11.0,75,0.00,,,0.00,meteohub,2013-09-15 00:19:00,
2013-09-14 20:24:00,84.2,76.3,29.72,SSE,158,2.0,10.0,77,0.00,,,0.00,meteohub,2013-09-15 00:24:00,
2013-09-14 20:29:00,84.0,76.8,29.72,East,90,8.0,10.0,79,0.00,,,0.00,meteohub,2013-09-15 00:29:00,
2013-09-14 20:34:00,83.8,76.6,29.72,East,90,1.0,10.0,79,0.00,,,0.00,meteohub,2013-09-15 00:34:00,
2013-09-14 20:39:00,83.7,76.5,29.72,SE,135,6.0,10.0,79,0.00,,,0.00,meteohub,2013-09-15 00:39:00,
2013-09-14 20:44:00,83.7,75.7,29.73,SE,135,10.0,10.0,77,0.00,,,0.00,meteohub,2013-09-15 00:44:00,
2013-09-14 20:49:00,83.8,76.3,29.72,SE,135,10.0,10.0,78,0.00,,,0.00,meteohub,2013-09-15 00:49:00,
2013-09-14 20:54:00,83.7,76.5,29.72,East,90,10.0,10.0,79,0.00,,,0.00,meteohub,2013-09-15 00:54:00,
2013-09-14 20:59:00,83.7,76.5,29.72,SE,135,8.0,10.0,79,0.00,,,0.00,meteohub,2013-09-15 00:59:00,
2013-09-14 21:04:00,83.7,76.1,29.73,East,90,6.0,10.0,78,0.00,,,0.00,meteohub,2013-09-15 01:04:00,
2013-09-14 21:09:00,83.7,76.1,29.73,East,90,6.0,10.0,78,0.00,,,0.00,meteohub,2013-09-15 01:09:00,
2013-09-14 21:14:00,83.8,77.0,29.73,East,90,1.0,9.0,80,0.00,,,0.00,meteohub,2013-09-15 01:14:00,
2013-09-14 21:19:00,83.7,76.5,29.73,SE,135,4.0,9.0,79,0.00,,,0.00,meteohub,2013-09-15 01:19:00,
2013-09-14 21:24:00,83.7,76.8,29.73,SE,135,9.0,11.0,80,0.00,,,0.00,meteohub,2013-09-15 01:24:00,
2013-09-14 21:29:00,83.7,77.5,29.73,SE,135,6.0,11.0,82,0.00,,,0.00,meteohub,2013-09-15 01:29:00,
2013-09-14 21:34:00,83.5,77.0,29.73,SE,135,10.0,11.0,81,0.00,,,0.00,meteohub,2013-09-15 01:34:00,
2013-09-14 21:39:00,83.5,76.6,29.73,East,90,4.0,10.0,80,0.00,,,0.00,meteohub,2013-09-15 01:39:00,
2013-09-14 21:44:00,83.5,76.6,29.73,SE,135,10.0,10.0,80,0.00,,,0.00,meteohub,2013-09-15 01:44:00,
2013-09-14 21:49:00,83.5,77.0,29.73,SE,135,10.0,10.0,81,0.00,,,0.00,meteohub,2013-09-15 01:49:00,
2013-09-14 21:54:00,83.5,76.6,29.73,East,90,7.0,10.0,80,0.00,,,0.00,meteohub,2013-09-15 01:54:00,
2013-09-14 21:59:00,83.5,77.4,29.74,SE,135,1.0,11.0,82,0.00,,,0.00,meteohub,2013-09-15 01:59:00,
2013-09-14 22:04:00,83.5,77.4,29.74,East,90,2.0,11.0,82,0.00,,,0.00,meteohub,2013-09-15 02:04:00,
2013-09-14 22:09:00,83.3,77.2,29.74,East,90,8.0,11.0,82,0.00,,,0.00,meteohub,2013-09-15 02:09:00,
2013-09-14 22:14:00,83.3,77.2,29.74,SE,135,4.0,10.0,82,0.00,,,0.00,meteohub,2013-09-15 02:14:00,
2013-09-14 22:19:00,83.1,77.0,29.74,SE,135,8.0,8.0,82,0.00,,,0.00,meteohub,2013-09-15 02:19:00,
2013-09-14 22:24:00,82.9,76.8,29.75,SE,135,2.0,8.0,82,0.00,,,0.00,meteohub,2013-09-15 02:24:00,
2013-09-14 22:29:00,82.9,76.8,29.74,SE,135,5.0,8.0,82,0.00,,,0.00,meteohub,2013-09-15 02:29:00,
2013-09-14 22:34:00,82.9,76.8,29.75,SE,135,6.0,8.0,82,0.00,,,0.00,meteohub,2013-09-15 02:34:00,
2013-09-14 22:39:00,82.9,76.8,29.75,South,180,3.0,9.0,82,0.00,,,0.00,meteohub,2013-09-15 02:39:00,
2013-09-14 22:44:00,82.9,77.2,29.75,SE,135,1.0,9.0,83,0.00,,,0.00,meteohub,2013-09-15 02:44:00,
2013-09-14 22:49:00,82.9,77.2,29.75,ESE,113,1.0,9.0,83,0.00,,,0.00,meteohub,2013-09-15 02:49:00,
2013-09-14 22:54:00,82.8,77.0,29.75,SSE,158,6.0,6.0,83,0.00,,,0.00,meteohub,2013-09-15 02:54:00,
2013-09-14 22:59:00,82.8,77.0,29.75,East,90,1.0,8.0,83,0.00,,,0.00,meteohub,2013-09-15 02:59:00,
2013-09-14 23:04:00,82.8,77.4,29.75,SE,135,2.0,9.0,84,0.00,,,0.00,meteohub,2013-09-15 03:04:00,
2013-09-14 23:09:00,82.4,77.0,29.75,South,180,8.0,9.0,84,0.00,,,0.00,meteohub,2013-09-15 03:09:00,
2013-09-14 23:14:00,82.8,77.4,29.75,SE,135,5.0,9.0,84,0.00,,,0.00,meteohub,2013-09-15 03:14:00,
2013-09-14 23:20:00,82.8,77.4,29.75,ENE,68,1.0,9.0,84,0.00,,,0.00,meteohub,2013-09-15 03:20:00,
2013-09-14 23:25:00,82.8,77.4,29.75,East,90,6.0,9.0,84,0.00,,,0.00,meteohub,2013-09-15 03:25:00,
2013-09-14 23:30:00,82.8,77.7,29.75,East,90,4.0,9.0,85,0.00,,,0.00,meteohub,2013-09-15 03:30:00,
2013-09-14 23:35:00,82.8,78.1,29.75,SE,135,8.0,9.0,86,0.00,,,0.00,meteohub,2013-09-15 03:35:00,
2013-09-14 23:40:00,82.4,77.7,29.75,East,90,4.0,9.0,86,0.00,,,0.00,meteohub,2013-09-15 03:40:00,
2013-09-14 23:45:00,82.4,77.7,29.75,NE,45,8.0,8.0,86,0.00,,,0.00,meteohub,2013-09-15 03:45:00,
2013-09-14 23:50:00,82.4,78.1,29.75,SE,135,5.0,8.0,87,0.00,,,0.00,meteohub,2013-09-15 03:50:00,
2013-09-14 23:55:00,82.4,78.1,29.75,East,90,1.0,8.0,87,0.00,,,0.00,meteohub,2013-09-15 03:55:00,